Weather reports worldwide

Advertisment
Eskdalemuir, United Kingdom (3162): temperature & dewpoint: 10.01.2018 23:00:00 - 16.01.2018 23:00:00 (GMT)Eskdalemuir, United Kingdom (3162): temperature -20cm & temperature -100cm: 10.01.2018 23:00:00 - 16.01.2018 23:00:00 (GMT)Eskdalemuir, United Kingdom (3162): wind speed & gusts: 10.01.2018 23:00:00 - 16.01.2018 23:00:00 (GMT)Eskdalemuir, United Kingdom (3162): wind direction: 10.01.2018 23:00:00 - 16.01.2018 23:00:00 (GMT)Eskdalemuir, United Kingdom (3162): reduced air pressure: 10.01.2018 23:00:00 - 16.01.2018 23:00:00 (GMT)Eskdalemuir, United Kingdom (3162): visibility: 10.01.2018 23:00:00 - 16.01.2018 23:00:00 (GMT)Eskdalemuir, United Kingdom (3162): sunshine duration: 10.01.2018 23:00:00 - 16.01.2018 23:00:00 (GMT)Eskdalemuir, United Kingdom (3162): precipitation: 10.01.2018 23:00:00 - 16.01.2018 23:00:00 (GMT)
Date & Time tt [°C] td [°C] tt -20cm [°C] tt -100cm [°C] ff [km/h] ff [kn] fx [km/h] fx [kn] dd ppp [hPa] vv [km] sd [min] rr [mm]
16.01.2018 23:00:00 - - - - - - - - - - - - -
16.01.2018 22:00:00 -1,4 -2,0 - - 9 5 - - SW 984,5 16 0 0,0
16.01.2018 21:00:00 -0,8 -1,5 - - 16 9 - - SW 984,3 0,9 0 -
16.01.2018 20:00:00 -0,8 -1,6 - - 15 8 - - WSW 984,0 5 0 -
16.01.2018 19:00:00 -0,6 -1,3 - - 16 9 - - SW 984,1 28 0 -
16.01.2018 18:00:00 -0,5 -1,4 - - 22 12 - - WSW 983,7 6 0 -
16.01.2018 17:00:00 -0,3 -1,4 - - 18 10 - - WSW 984,0 25 0 -
16.01.2018 16:00:00 -0,3 -1,5 - - 16 9 - - SW 984,0 5 0 -
16.01.2018 15:00:00 -0,5 -0,7 - - 16 9 - - W 984,6 0,2 0 0,0
16.01.2018 14:00:00 0,4 -1,1 - - 16 9 - - SW 984,7 15 0 0,0
16.01.2018 13:00:00 0,2 -1,1 - - 15 8 - - SW 985,2 3,5 0 0,0
16.01.2018 12:00:00 -0,1 -0,8 - - 11 6 - - SW 986,0 0,7 0 0,0
16.01.2018 11:00:00 -0,1 -0,6 - - 8 4 - - SW 985,9 2,0 0 0,0
16.01.2018 10:00:00 0,0 -0,6 - - 11 6 - - SSW 985,8 0,4 0 0,0
16.01.2018 09:00:00 -0,1 -0,6 4,0 5,0 13 7 - - W 985,8 0,3 0 0,0
16.01.2018 08:00:00 -0,2 -0,6 - - 16 9 - - SW 985,7 0,5 0 0,0
16.01.2018 07:00:00 0,0 -0,6 - - 16 9 - - WSW 985,4 45 0 0,0
16.01.2018 06:00:00 0,0 -0,6 - - 21 11 - - SW 985,1 17 0 0,0
16.01.2018 05:00:00 -0,2 -0,7 - - 18 10 - - WSW 984,9 50 0 0,0
16.01.2018 04:00:00 0,2 -0,3 - - 21 11 - - WSW 985,0 13 0 0,0
16.01.2018 03:00:00 0,2 -0,4 - - 13 7 - - SW 984,8 28 0 0,0
16.01.2018 02:00:00 0,2 -0,3 - - 11 6 - - WSW 985,0 0,2 0 0,0
16.01.2018 01:00:00 0,5 -0,5 - - 18 10 - - W 984,6 14 0 0,0
16.01.2018 00:00:00 0,4 -0,1 - - 13 7 - - SW 984,9 0,9 - 0,4
15.01.2018 23:00:00 0,8 0,0 - - 15 8 - - SW 985,2 7 0 0,2
15.01.2018 22:00:00 0,9 -0,1 - - 18 10 - - SW 985,1 1,9 0 0,4
15.01.2018 21:00:00 1,0 -0,3 - - 15 8 - - SW 985,2 50 0 0,4
15.01.2018 20:00:00 0,9 0,1 - - 11 6 - - SW 985,4 3,6 0 0,4
15.01.2018 19:00:00 1,3 0,1 - - 15 8 - - WSW 985,7 50 0 1,0
15.01.2018 18:00:00 2,1 0,0 - - 21 11 - - WSW 985,8 40 0 0,0
15.01.2018 17:00:00 2,0 0,9 - - 11 6 - - S 986,3 25 0 0,6
15.01.2018 16:00:00 2,5 0,0 - - 24 13 61 33 W 986,2 15 12 0,2
15.01.2018 15:00:00 3,5 1,0 - - 41 22 65 35 W 985,8 18 30 0,0
15.01.2018 14:00:00 4,6 1,2 - - 24 13 - - WSW 986,2 40 0 0,0
15.01.2018 13:00:00 5,1 2,0 - - 15 8 - - WSW 986,9 45 6 0,2
15.01.2018 12:00:00 5,1 2,2 - - 16 9 - - W 987,4 40 6 0,0
15.01.2018 11:00:00 4,8 2,6 - - 11 6 - - W 987,8 40 0 0,4
15.01.2018 10:00:00 5,2 3,2 - - 16 9 - - W 988,0 35 0 0,2
15.01.2018 09:00:00 5,7 4,6 3,7 5,0 11 6 - - W 988,5 6 0 0,6
15.01.2018 08:00:00 6,0 5,3 - - 11 6 - - WSW 988,3 12 0 0,6
15.01.2018 07:00:00 6,2 5,5 - - 13 7 - - SW 988,9 4,3 0 0,4
15.01.2018 06:00:00 6,5 5,5 - - 16 9 - - SW 989,4 30 0 0,0
15.01.2018 05:00:00 6,9 5,8 - - 21 11 46 25 SW 990,0 30 0 0,0
15.01.2018 04:00:00 7,1 6,4 - - 24 13 - - SW 990,4 17 0 0,0
15.01.2018 03:00:00 7,2 6,6 - - 26 14 52 28 SW 991,5 11 0 0,8
15.01.2018 02:00:00 6,4 5,8 - - 31 17 55 30 SSW 993,3 4,2 0 2,0
15.01.2018 01:00:00 5,8 5,2 - - 35 19 61 33 SSW 994,9 3,1 0 4,2
15.01.2018 00:00:00 5,4 4,7 - - 37 20 67 36 SSW 997,1 0,8 - 4,8
14.01.2018 23:00:00 4,9 4,2 - - 37 20 72 39 SSW 998,7 2,1 0 6,0
14.01.2018 22:00:00 4,9 3,9 - - 50 27 78 42 SSW 1000,0 4,5 0 3,6
14.01.2018 21:00:00 4,3 3,4 - - 41 22 68 37 S 1001,6 5 0 1,2
14.01.2018 20:00:00 4,2 3,3 - - 37 20 55 30 S 1003,6 4,2 0 0,8
14.01.2018 19:00:00 3,9 2,9 - - 34 18 54 29 S 1005,2 4,0 0 1,0
14.01.2018 18:00:00 3,8 2,4 - - 28 15 - - S 1006,7 6 0 0,0
14.01.2018 17:00:00 3,5 2,3 - - 31 17 55 30 SSW 1008,6 5 0 0,0
14.01.2018 16:00:00 2,2 1,6 - - 21 11 - - S 1009,5 3,5 0 0,0
14.01.2018 15:00:00 2,2 1,4 - - 24 13 - - S 1010,6 4,5 0 0,2
14.01.2018 14:00:00 2,2 1,3 - - 24 13 - - S 1011,7 5 0 1,0
14.01.2018 13:00:00 2,5 1,5 - - 24 13 - - S 1012,5 6 0 0,0
14.01.2018 12:00:00 2,5 1,6 - - 18 10 - - S 1014,3 5 0 0,4
14.01.2018 11:00:00 2,4 1,4 - - 13 7 - - S 1015,3 5 0 0,4
14.01.2018 10:00:00 2,2 1,3 - - 8 4 - - S 1016,1 7 0 0,2
14.01.2018 09:00:00 2,2 1,1 3,4 5,2 9 5 - - S 1016,4 7 0 0,0
14.01.2018 08:00:00 2,2 1,4 - - 9 5 - - SSE 1016,5 6 0 0,2
14.01.2018 07:00:00 2,5 1,3 - - 4 2 - - SSE 1017,2 4,6 0 0,0
14.01.2018 06:00:00 2,8 1,1 - - 11 6 - - S 1016,9 5 0 0,0
14.01.2018 05:00:00 3,1 1,2 - - 11 6 - - S 1016,9 5 0 0,0
14.01.2018 04:00:00 3,3 1,1 - - 16 9 - - S 1017,2 6 0 0,0
14.01.2018 03:00:00 3,3 1,7 - - 13 7 - - S 1017,7 5 0 0,0
14.01.2018 02:00:00 3,6 1,9 - - 15 8 - - S 1017,6 5 0 0,0
14.01.2018 01:00:00 3,6 2,5 - - 11 6 - - S 1017,7 3,8 0 0,0
14.01.2018 00:00:00 3,6 2,5 - - 4 2 - - S 1018,2 4,8 - 0,2
13.01.2018 23:00:00 3,6 2,5 - - 11 6 - - S 1017,9 4,1 0 0,0
13.01.2018 22:00:00 3,6 2,2 - - 11 6 - - S 1017,6 4,4 0 0,0
13.01.2018 21:00:00 3,7 2,0 - - 11 6 - - SSE 1017,8 5 0 0,2
13.01.2018 20:00:00 4,0 1,3 - - 16 9 - - S 1017,3 8 0 0,0
13.01.2018 19:00:00 3,9 1,5 - - 13 7 - - S 1017,1 9 0 0,0
13.01.2018 18:00:00 3,8 1,4 - - 16 9 - - SSE 1016,9 9 0 0,0
13.01.2018 17:00:00 4,0 1,2 - - 15 8 - - S 1016,6 12 0 0,0
13.01.2018 16:00:00 4,2 1,3 - - 13 7 - - SSE 1016,2 15 0 0,0
13.01.2018 15:00:00 4,3 1,0 - - 18 10 - - SSE 1016,1 18 0 0,0
13.01.2018 14:00:00 4,2 0,8 - - 18 10 - - SSE 1016,4 18 0 0,0
13.01.2018 13:00:00 4,2 0,6 - - 16 9 - - SSE 1016,7 20 0 0,0
13.01.2018 12:00:00 4,2 0,6 - - 18 10 - - SSE 1016,9 18 0 0,0
13.01.2018 11:00:00 4,0 0,8 - - 18 10 - - SSE 1017,3 15 0 0,0
13.01.2018 10:00:00 3,9 0,7 - - 16 9 - - SSE 1017,0 15 0 0,0
13.01.2018 09:00:00 3,8 0,4 3,2 5,2 18 10 - - SSE 1016,9 15 0 0,0
13.01.2018 08:00:00 3,7 0,6 - - 9 5 - - SSE 1017,1 12 0 0,0
13.01.2018 07:00:00 3,4 0,4 - - 9 5 - - SSE 1017,2 12 0 0,0
13.01.2018 06:00:00 3,3 0,7 - - 8 4 - - S 1017,5 10 0 0,0
13.01.2018 05:00:00 3,2 0,6 - - 11 6 - - S 1017,7 10 0 0,0
13.01.2018 04:00:00 2,7 0,7 - - 8 4 - - S 1018,3 9 0 0,0
13.01.2018 03:00:00 1,0 0,2 - - 9 5 - - S 1019,1 9 0 0,0
13.01.2018 02:00:00 0,0 -0,8 - - 4 2 - - NW 1019,8 7 0 0,0
13.01.2018 01:00:00 0,8 -0,8 - - 4 2 - - NNW 1020,3 8 0 0,0
13.01.2018 00:00:00 2,6 -0,3 - - 8 4 - - S 1020,4 14 - 0,0
12.01.2018 23:00:00 2,9 -0,1 - - 11 6 - - SSE 1020,9 14 0 0,0
12.01.2018 22:00:00 3,7 0,5 - - 15 8 - - SSE 1021,2 12 0 0,0
12.01.2018 21:00:00 3,6 1,4 - - 13 7 - - SSE 1021,7 9 0 0,0
12.01.2018 20:00:00 3,8 0,7 - - 15 8 - - SSE 1022,0 15 0 0,0
12.01.2018 19:00:00 4,1 0,4 - - 16 9 - - SSE 1022,2 17 0 0,0
12.01.2018 18:00:00 4,1 0,5 - - 13 7 - - SSE 1022,5 15 0 0,0
12.01.2018 17:00:00 4,3 0,1 - - 13 7 - - SSE 1022,8 20 0 0,0
12.01.2018 16:00:00 4,5 0,6 - - 11 6 - - S 1023,0 20 0 0,0
12.01.2018 15:00:00 5,2 1,2 - - 15 8 - - SSE 1023,4 22 0 0,0
12.01.2018 14:00:00 5,5 1,1 - - 13 7 - - SSE 1023,7 25 48 0,0
12.01.2018 13:00:00 5,5 1,2 - - 11 6 - - S 1024,3 30 12 0,0
12.01.2018 12:00:00 5,6 1,2 - - 15 8 - - SSE 1024,9 35 0 0,0
12.01.2018 11:00:00 4,9 1,5 - - 13 7 - - SSE 1025,5 35 0 0,0
12.01.2018 10:00:00 4,6 1,9 - - 11 6 - - SSE 1025,7 30 0 0,0
12.01.2018 09:00:00 4,6 2,7 3,0 5,2 9 5 - - SSE 1025,8 25 0 0,0
12.01.2018 08:00:00 4,6 3,5 - - 9 5 - - SSE 1025,8 12 0 0,0
12.01.2018 07:00:00 3,1 2,8 - - 2 1 - - E 1026,0 6 0 0,0
12.01.2018 06:00:00 3,1 2,8 - - 0 0 - - N 1025,9 8 0 0,0
12.01.2018 05:00:00 3,3 3,0 - - 2 1 - - WNW 1025,8 16 0 0,0
12.01.2018 04:00:00 3,4 3,0 - - 0 0 - - N 1026,0 12 0 0,0
12.01.2018 03:00:00 3,4 3,0 - - 0 0 - - N 1026,7 10 0 0,0
12.01.2018 02:00:00 3,5 3,0 - - 0 0 - - N 1026,8 16 0 0,0
12.01.2018 01:00:00 3,9 3,2 - - 2 1 - - NNW 1026,7 13 0 0,0
12.01.2018 00:00:00 4,0 3,3 - - 5 3 - - N 1026,6 9 - 0,0
11.01.2018 23:00:00 4,2 3,6 - - 5 3 - - NNE 1026,6 9 0 0,0
11.01.2018 22:00:00 4,1 3,4 - - 0 0 - - N 1026,8 10 0 0,0
11.01.2018 21:00:00 4,3 3,6 - - 8 4 - - NNE 1026,9 8 0 0,0
11.01.2018 20:00:00 4,5 3,6 - - 4 2 - - N 1026,3 13 0 0,0
11.01.2018 19:00:00 4,4 3,5 - - 5 3 - - N 1025,4 14 0 0,0
11.01.2018 18:00:00 4,5 3,4 - - 9 5 - - N 1025,0 21 0 0,0
11.01.2018 17:00:00 4,6 3,4 - - 8 4 - - N 1024,6 15 0 0,0
11.01.2018 16:00:00 4,7 3,6 - - 5 3 - - NE 1024,2 18 0 0,0
11.01.2018 15:00:00 5,1 3,5 - - 9 5 - - N 1023,5 15 0 0,0
11.01.2018 14:00:00 5,2 3,7 - - 8 4 - - NNE 1022,7 15 0 0,0
11.01.2018 13:00:00 5,3 3,6 - - 9 5 - - N 1021,9 20 0 0,0
11.01.2018 12:00:00 5,3 3,8 - - 9 5 - - NNE 1021,5 20 0 0,0
11.01.2018 11:00:00 4,9 3,2 - - 4 2 - - N 1021,6 25 18 0,0
11.01.2018 10:00:00 1,1 0,7 - - 5 3 - - WNW 1021,4 18 0 0,0
11.01.2018 09:00:00 0,5 0,0 3,2 5,2 0 0 - - N 1020,4 25 0 0,0
11.01.2018 08:00:00 0,3 0,0 - - 0 0 - - N 1019,3 3,5 0 0,0
11.01.2018 07:00:00 0,2 0,0 - - 0 0 - - N 1018,3 6 0 0,0
11.01.2018 06:00:00 0,5 0,3 - - 2 1 - - E 1017,5 8 0 0,0
11.01.2018 05:00:00 0,3 0,2 - - 2 1 - - NNW 1016,6 8 0 0,0
11.01.2018 04:00:00 0,2 -0,1 - - 0 0 - - N 1015,3 8 0 0,0
11.01.2018 03:00:00 0,3 0,0 - - 4 2 - - NNW 1014,6 7 0 0,0
11.01.2018 02:00:00 0,8 0,2 - - 2 1 - - NNW 1013,7 7 0 0,0
11.01.2018 01:00:00 2,0 1,2 - - 4 2 - - NW 1013,0 5 0 0,0
11.01.2018 00:00:00 2,0 1,2 - - 2 1 - - NW 1012,5 8 - 0,0
10.01.2018 23:00:00 2,1 1,2 - - 4 2 - - NNW 1011,6 7 0 0,0

tt = temperature
td = dewpoint
tt -20cm = temperature -20cm
tt -100cm = temperature -100cm
ff = wind speed
fx = gusts
dd = wind direction
ppp = reduced air pressure
vv = visibility
sd = sunshine duration
rr = precipitation

Next stations